This is the latest recevied weather packets stored in our database for station/object VE7OTD. If no packets are shown the sender has not sent any weather packets the latest 10 day(s).
| Time | Temp. | Humidity | Pressure | Rain* | Wind** | Luminosity | Snow |
|---|---|---|---|---|---|---|---|
| 1778079171 | 12.22° C | 87% | 1017.7 hPa | 0 mm | - | - | - |
| 1778077357 | 11.67° C | 91% | 1017.4 hPa | 0 mm | - | - | - |
| 1778075557 | 11.11° C | 95% | 1016.9 hPa | 0 mm | - | - | - |
| 1778073752 | 10.56° C | 98% | 1016.7 hPa | 0 mm | - | - | - |
| 1778071936 | 10.56° C | 99% | 1016.6 hPa | 0 mm | - | - | - |
| 1778070095 | 10.56° C | 99% | 1016.4 hPa | 0 mm | - | - | - |
| 1778068281 | 11.11° C | 99% | 1016.2 hPa | 0 mm | - | - | - |
| 1778066442 | 11.11° C | 99% | 1015.7 hPa | 0 mm | - | - | - |
| 1778064612 | 10.56° C | 99% | 1015.7 hPa | 0 mm | - | - | - |
| 1778062802 | 10.56° C | 99% | 1015.6 hPa | 0 mm | - | - | - |
| 1778060982 | 10.56° C | 99% | 1015.3 hPa | 0 mm | - | - | - |
| 1778059167 | 11.11° C | 99% | 1015.1 hPa | 0 mm | - | - | - |
| 1778057351 | 11.11° C | 99% | 1015 hPa | 0 mm | - | - | - |
| 1778055552 | 11.67° C | 99% | 1014.7 hPa | 0 mm | - | - | - |
| 1778053722 | 11.67° C | 96% | 1014.3 hPa | 0 mm | - | - | - |
| 1778051863 | 12.22° C | 96% | 1014 hPa | 0 mm | - | - | - |
| 1778050047 | 12.78° C | 92% | 1013.6 hPa | 0 mm | - | - | - |
| 1778048233 | 13.33° C | 91% | 1013.5 hPa | 0 mm | - | - | - |
| 1778046417 | 14.44° C | 87% | 1013.3 hPa | 0 mm | - | - | - |
| 1778044584 | 14.44° C | 84% | 1013.2 hPa | 0 mm | - | - | - |
| 1778042748 | 15° C | 84% | 1012.9 hPa | 0 mm | - | - | - |
| 1778040932 | - | - | 1012.6 hPa | 0 mm | - | - | - |
| 1778039117 | 16.11° C | 75% | 1012.3 hPa | 0 mm | - | - | - |
| 1778037302 | 17.22° C | 69% | 1012.2 hPa | 0 mm | - | - | - |
| 1778035488 | 18.33° C | 62% | 1012 hPa | 0 mm | - | - | - |
* Rain latest hour (hover to see other rain measurements)
** Current wind speed in m/s (hover to see current wind gust speed)